User: anonymous   Login
Location: Mactaquac Provincial Park
(45.9573°N, 66.8897°W)
Time: 12:27:28
(UTC-03:00)
Language:

Cosmos 1766 - Orbit

View from above orbital plane
View from above orbital plane
View from above satellite
View from above satellite

Ground track
Ground track

The orbit data is extracted from the following two-line orbital elements,

1 16881U 86055A   15145.13238867  .00001804  00000-0  11461-3 0  9991
2 16881 082.5152 040.4296 0013789 140.4279 219.7959 15.08191964567698
Epoch (UTC): 25 May 2015 03:10:38
Eccentricity: 0.0013789
inclination: 82.5152°
perigee height: 532 km
apogee height: 551 km
right ascension of ascending node: 40.4296°
argument of perigee: 140.4279°
revolutions per day: 15.08191964
mean anomaly at epoch: 219.7959°
orbit number at epoch: 56769

The dashed part of the orbit path shows where the satellite is in the earth's shadow,  

DLR